This demonstration page uses our WeatherBlox Daily Observations layout. Learn more.

Left ArrowRight Arrow

39.51506, -84.39828

Hourly Observations for December 6, 2018

Temp ( °F °C ) Dew Point ( °F °C ) Humidity (%) Winds ( mph kmh ) Pressure ( in mb ) Visibility ( mi km ) Precip ( " mm )
12:15 am 00:15 Cloudy 28 -2.5 19 -7 72 72 S 6 9 30.33 1027 10 16 N/A
12:35 am 00:35 Cloudy 28 -2.3 20 -6.8 72 72 S 6 9 30.33 1027 10 16 N/A
12:55 am 00:55 Cloudy 28 -2.3 20 -6.6 73 73 S 7 11 30.33 1027 10 16 N/A
1:15 am 01:15 Cloudy 28 -2.5 20 -6.7 73 73 S 6 9 30.33 1027 10 16 N/A
1:35 am 01:35 Partly Cloudy 27 -2.8 20 -6.8 74 74 S 7 11 30.33 1027 10 16 N/A
1:55 am 01:55 Clear 27 -3 20 -6.7 76 76 S 7 11 30.33 1027 10 16 N/A
2:15 am 02:15 Clear 26 -3.2 20 -6.8 76 76 S 6 9 30.33 1027 10 16 N/A
2:35 am 02:35 Clear 26 -3.1 20 -6.7 76 76 S 8 13 30.33 1027 10 16 N/A
2:55 am 02:55 Clear 26 -3.1 20 -6.6 77 77 S 7 11 30.33 1027 10 16 N/A
3:15 am 03:15 Clear 26 -3.2 20 -6.5 78 78 S 8 13 30.33 1027 10 16 N/A
3:35 am 03:35 Clear 26 -3.3 20 -6.5 79 79 S 7 11 30.33 1027 10 16 N/A
3:55 am 03:55 Clear 26 -3.1 21 -6.3 79 79 S 8 13 30.30 1026 10 16 N/A
4:15 am 04:15 Clear 27 -2.9 21 -6.1 79 79 S 9 15 30.30 1026 10 16 N/A
4:35 am 04:35 Clear 27 -2.9 21 -6 79 79 S 8 13 30.30 1026 10 16 N/A
4:55 am 04:55 Clear 27 -2.7 21 -6 78 78 S 9 15 30.30 1026 10 16 N/A
5:15 am 05:15 Clear 27 -2.6 22 -5.8 79 79 S 7 11 30.30 1026 10 16 N/A
5:35 am 05:35 Clear 28 -2.5 22 -5.8 78 78 SSW 7 11 30.30 1026 10 16 N/A
5:55 am 05:55 Clear 27 -2.7 22 -5.7 80 80 S 8 13 30.30 1026 10 16 N/A
6:15 am 06:15 Clear 28 -2.5 22 -5.6 80 80 S 8 13 30.30 1026 10 16 N/A
6:35 am 06:35 Clear 28 -2.4 22 -5.5 80 80 S 8 13 30.30 1026 10 16 N/A
6:55 am 06:55 Clear 28 -2.4 22 -5.5 80 80 S 8 13 30.30 1026 10 16 N/A
7:15 am 07:15 Clear 28 -2.5 22 -5.5 80 80 S 8 13 30.30 1026 10 16 N/A
7:35 am 07:35 Clear 28 -2.5 22 -5.5 80 80 S 8 13 30.30 1026 10 16 N/A
7:55 am 07:55 Sunny 28 -2.4 22 -5.3 81 81 S 6 9 30.30 1026 10 16 N/A
8:15 am 08:15 Sunny 28 -2.1 23 -5.1 80 80 S 6 9 30.30 1026 10 16 N/A
8:35 am 08:35 Sunny 29 -1.8 23 -4.9 80 80 S 7 11 30.30 1026 10 16 N/A
8:55 am 08:55 Sunny 29 -1.5 24 -4.6 80 80 S 8 13 30.27 1025 10 16 N/A
9:15 am 09:15 Partly Cloudy 30 -1.1 24 -4.2 80 80 SSW 8 13 30.30 1026 10 16 N/A
9:35 am 09:35 Partly Cloudy 31 -0.6 25 -4 78 78 SSW 10 17 30.27 1025 10 16 N/A
9:55 am 09:55 Mostly Cloudy 32 undefined 26 -3.4 78 78 SSW 12 19 30.30 1026 10 16 N/A
10:15 am 10:15 Cloudy 32 0.2 26 -3.5 76 76 SSW 13 20 30.27 1025 10 16 N/A
10:35 am 10:35 Cloudy 33 0.5 26 -3.3 76 76 SSW 9 15 30.27 1025 10 16 N/A
10:55 am 10:55 Cloudy 34 0.9 26 -3.2 74 74 S 12 19 30.27 1025 10 16 N/A
11:15 am 11:15 Cloudy 35 1.4 27 -2.9 73 73 SSW 12 19 30.27 1025 10 16 N/A
11:35 am 11:35 Cloudy 35 1.8 27 -2.6 73 73 SW 10 17 30.27 1025 10 16 N/A
11:55 am 11:55 Cloudy 36 2.4 28 -2.5 70 70 SW 13 20 30.27 1025 10 16 N/A
12:15 pm 12:15 Mostly Cloudy 37 2.8 28 -2.1 70 70 SW 13 20 30.27 1025 10 16 N/A
12:35 pm 12:35 Cloudy 38 3.1 28 -2 70 70 SW 14 22 30.27 1025 10 16 N/A
12:55 pm 12:55 Cloudy 38 3.4 28 -2 68 68 SW 10 17 30.24 1024 10 16 N/A
1:15 pm 13:15 Cloudy 39 3.7 29 -1.8 68 68 WSW 13 20 30.24 1024 10 16 N/A
1:35 pm 13:35 Cloudy with Light Rain 38 3.1 32 -0.2 79 79 WSW 13 20 30.24 1024 10 16 N/A
1:55 pm 13:55 Cloudy with Light Rain 38 3.2 32 0.2 81 81 WSW 14 22 30.24 1024 10 16 N/A
2:15 pm 14:15 Mostly Cloudy 38 3.1 32 -0.1 80 80 WSW 13 20 30.24 1024 10 16 N/A
2:35 pm 14:35 Cloudy with Drizzle 38 3.6 32 0.1 78 78 SW 13 20 30.24 1024 10 16 N/A
2:55 pm 14:55 Cloudy with Light Rain 38 3.3 32 0.1 80 80 SW 15 24 30.24 1024 10 16 N/A
3:15 pm 15:15 Cloudy with Light Rain 38 3.1 33 0.5 83 83 SW 15 24 30.24 1024 10 16 N/A
3:35 pm 15:35 Cloudy with Light Rain 37 3 33 0.6 84 84 SW 12 19 30.24 1024 10 16 N/A
3:55 pm 15:55 Cloudy with Light Rain 37 2.9 34 0.9 87 87 SW 10 17 30.27 1025 7 11 N/A
4:15 pm 16:15 Cloudy with Light Rain 37 2.9 34 1 87 87 SW 9 15 30.27 1025 7 11 N/A
4:35 pm 16:35 Cloudy with Light Rain 37 2.8 34 1.1 89 89 WSW 9 15 30.27 1025 5 8 N/A
4:55 pm 16:55 Cloudy with Light Rain 37 2.7 34 1.3 91 91 WSW 8 13 30.27 1025 5 8 N/A
5:15 pm 17:15 Cloudy with Light Rain 36 2.4 34 1.2 92 92 W 8 13 30.27 1025 4 6 N/A
5:35 pm 17:35 Cloudy with Light Rain 35 1.9 33 0.8 93 93 W 8 13 30.27 1025 7 11 N/A
5:55 pm 17:55 Cloudy with Light Rain 35 1.5 33 0.5 93 93 W 8 13 30.30 1026 7 11 N/A
6:15 pm 18:15 Cloudy with Light Snow 34 1.2 33 0.3 94 94 W 8 13 30.30 1026 7 11 0.01 0.25
6:35 pm 18:35 Cloudy with Light Snow 34 1.1 32 0.2 94 94 WNW 8 13 30.30 1026 7 11 0.01 0.25
6:55 pm 18:55 Cloudy with Light Snow 34 1.1 32 0.2 94 94 WNW 7 11 30.33 1027 7 11 0.01 0.25
7:15 pm 19:15 Cloudy with Light Snow 34 1 31 -0.4 90 90 NW 6 9 30.33 1027 7 11 N/A
7:35 pm 19:35 Cloudy with Light Snow 33 0.8 31 -0.3 92 92 NNW 6 9 30.33 1027 7 11 N/A
7:55 pm 19:55 Cloudy with Light Snow 33 0.7 31 -0.3 93 93 NW 9 15 30.33 1027 10 16 N/A
8:15 pm 20:15 Cloudy with Light Snow 33 0.6 30 -0.9 90 90 NNW 10 17 30.36 1028 10 16 N/A
8:35 pm 20:35 Cloudy with Light Rain 33 0.3 29 -1.7 87 87 NNW 6 9 30.36 1028 10 16 N/A
8:55 pm 20:55 Cloudy 32 0.2 29 -1.8 87 87 NNW 7 11 30.36 1028 10 16 N/A
9:15 pm 21:15 Mostly Cloudy 32 -0.1 28 -2.1 87 87 NNW 5 7 30.36 1028 10 16 N/A
9:35 pm 21:35 Partly Cloudy 31 -0.6 27 -2.7 86 86 NNW 3 6 30.36 1028 10 16 N/A
9:55 pm 21:55 Partly Cloudy 30 -1.1 26 -3.4 85 85 N N/A 30.39 1029 10 16 N/A
10:15 pm 22:15 Partly Cloudy 30 -1.2 25 -3.9 82 82 NNW 7 11 30.39 1029 10 16 N/A
10:35 pm 22:35 Clear 29 -1.7 25 -4.1 84 84 NW 5 7 30.39 1029 10 16 N/A
10:55 pm 22:55 Clear 29 -1.9 24 -4.4 83 83 NW 5 7 30.42 1030 10 16 N/A
11:15 pm 23:15 Clear 28 -2.2 24 -4.6 84 84 NW 6 9 30.42 1030 10 16 N/A
11:35 pm 23:35 Clear 28 -2.3 24 -4.6 84 84 NNW 7 11 30.42 1030 10 16 N/A
11:55 pm 23:55 Clear 28 -2.4 23 -4.8 84 84 NW 5 7 30.45 1031 10 16 N/A

Powered by AerisWeather